Regional Weather Roundup
Issued by NWS Portland, ME

Home | Current Version | Previous Version | Text Only | Print | Product List | Glossary On
Versions: 1 2 3 4 5 6 7 8 9 10 11 12 13 14 15 16 17 18 19 20 21 22 23 24 25 26 27 28 29 30 31 32 33 34 35 36 37 38 39 40 41 42 43 44 45 46 47 48 49 50
000
ASUS41 KGYX 250610
RWRGYX
WEATHER ROUNDUP FOR MAINE AND NEW HAMPSHIRE
NATIONAL WEATHER SERVICE GRAY ME
100 AM EST SAT FEB 25 2017

MEZ002-005-006-010-012-015-018-020-021-024-026-027-029-250700-
MAINE

CITY           SKY/WX    TMP DP  RH WIND       PRES   REMARKS
PORTLAND       MOCLDY    36  36 100 CALM      29.85S FOG
6HR MIN TEMP:  36; 6HR MAX TEMP:  42;

SANFORD        FOG       48  48 100 S5        29.85S VSB 3/4
BAR HARBOR     FOG       43  43 100 S5        29.89R VSB 1
WISCASSET      CLOUDY    46  45  96 SW5       29.87S FOG
6HR MIN TEMP:  35; 6HR MAX TEMP:  46;

ROCKLAND       CLOUDY    47  46  97 SW7       29.87S
FRYEBURG       FOG       32  32 100 CALM      29.83S VSB 3/4
6HR MIN TEMP:  32; 6HR MAX TEMP:  38;

LEWISTONAUBURN FOG       36  36 100 CALM      29.84F VSB 1/4
AUGUSTA        FOG       40  39  97 CALM      29.84F VSB 1/4
6HR MIN TEMP:  38; 6HR MAX TEMP:  47;

WATERVILLE     FOG       40  39  97 CALM      29.82S VSB 1/4
BANGOR         FOG       37  37 100 CALM      29.88R VSB 1/16
6HR MIN TEMP:  34; 6HR MAX TEMP:  43; 6HR PCP: TRACE;

GREENVILLE       N/A     39  39 100 E6        29.82R
6HR MIN TEMP:  38; 6HR MAX TEMP:  43;

MILLINOCKET    CLOUDY    34  32  92 NE5       29.93R FOG
6HR MIN TEMP:  34; 6HR MAX TEMP:  42; 6HR PCP:  0.01;

HOULTON        LGT RAIN  34  33  96 N8        29.93R
PRESQUE ISLE   FLURRIES  30  28  92 N10       29.98R
6HR MIN TEMP:  30; 6HR MAX TEMP:  36; 6HR PCP:  0.18;

FRENCHVILLE    CLOUDY    28  23  81 NW3       29.96R
6HR MIN TEMP:  27; 6HR MAX TEMP:  31; 6HR PCP:  0.02;

CARIBOU        FRZ RAIN  30  27  88 N6        29.96R FOG
6HR MIN TEMP:  30; 6HR MAX TEMP:  35; 6HR PCP:  0.19;

$$

NHZ002-005-008-009-011-012-014-250700-
NEW HAMPSHIRE

CITY           SKY/WX    TMP DP  RH WIND       PRES   REMARKS
PORTSMOUTH     MOCLDY    55  52  90 VRB3      29.84S
ROCHESTER      NOT AVBL
NASHUA         CLOUDY    51  50  96 CALM      29.85F
MANCHESTER     CLOUDY    56  51  84 S6        29.83F
6HR MIN TEMP:  56; 6HR MAX TEMP:  65;

CONCORD        PTCLDY    43  41  93 S3        29.84S
6HR MIN TEMP:  43; 6HR MAX TEMP:  58;

LACONIA        MOCLDY    34  34 100 MISG      29.84S FOG
PLYMOUTH       FOG       35  35 100 CALM      29.84S VSB 1/4
BERLIN         FOG       34  32  92 SE3       29.80S VSB 1/2
6HR MIN TEMP:  34; 6HR MAX TEMP:  40;

WHITEFIELD     FOG       33  31  92 CALM      29.79F VSB 1/2
6HR MIN TEMP:  33; 6HR MAX TEMP:  38;

JAFFREY        CLOUDY    55  52  89 SW9       29.84F
6HR MIN TEMP:  46; 6HR MAX TEMP:  57;

KEENE          CLOUDY    47  47 100 S5        29.83F
LEBANON        CLOUDY    35  34  96 CALM      29.80F
6HR MIN TEMP:  34; 6HR MAX TEMP:  40;

MT WASHINGTON  FOG       39  39 100 SW33G40     N/A  VSB 0
6HR MIN TEMP:  38; 6HR MAX TEMP:  41;

$$

VTZ005-007-008-250700-
VERMONT

CITY           SKY/WX    TMP DP  RH WIND       PRES   REMARKS
ST JOHNSBURY     N/A     36  36 100 MISG      29.78S
MONTPELIER     CLOUDY    43  41  93 S7        29.79  FOG
BURLINGTON     FOG       37  36  96 CALM      29.74F VSB 1/4
$$

MAZ007-012-024-CTZ003-RIZ002-NYZ038-NYZ072-250700-
SOUTHERN NEW ENGLAND AND NY

CITY           SKY/WX    TMP DP  RH WIND       PRES   REMARKS
WORCESTER      CLOUDY    56  53  90 SW14      29.85F
NANTUCKET      PTCLDY    46  45  96 S8        29.93F
PROVIDENCE     CLOUDY    50  49  96 S5        29.88F
HARTFORD       CLOUDY    56  54  93 S9        29.84F
ALBANY         PTCLDY    59  51  75 S16G29    29.75F
NEW YORK CITY  CLOUDY    54  51  90 S5        29.84F
$$

ANZ081-ANZ082-ANZ150-NHZ014-MEZ023>029-250700-
COASTAL MARINE OBSERVATIONS

STATION/POSITION TIME  TEMP    WIND        PRES    WAVE
                       AIR SEA DIR/SP/G            HT/PER
                 (UTC) (F)     (DEG/KT/KT) (MB)    (FT/S)
MOUNT DESERT ROC 0600   45                 1012.1R
MATINICUS ROCK   0600   45     200/ 18/ 19 1011.2R
ISLE OF SHOALS   0600   55     210/ 18/ 19 1010.7R
JEFFREYS LEDGE   0506      43                N/A     4/11
CASHES LEDGE BUO 0550   45 43              1012.1R   4/13
GEORGES BANK BUO 0550   49 44              1016.2F   3/11
$$

.............KEY..............
   WCI - WIND CHILL
   TC  - TEMPERATURE IN CELSIUS
   VSB - VISIBILITY IN MILES
   HX  - HEAT INDEX
   FAIR- INDICATES FEW OR NO CLOUDS BELOW 12,000 FT, WITH NO
         SIGNIFICANT WEATHER AND/OR OBSTRUCTIONS TO VISIBILITY.





USA.gov is the U.S. government's official web portal to all federal, state and local government web resources and services.